SCP
0 0 0 0 0 0 0 0 0 0 0 0 -0 -0 0 0 0 0 0 0 0 0 0 0 0 0 0 0 0 0 0 0 0 0 0 0 0 0 0 0 0 0 0 0
0 0 0 0 0 0 0 0 0 0 0 0 0 0 0 0 0 0 0 0 0 0 0 0 0 0 0 0 0 0 0 0 0 0 0 0 0 0 0 0 0 0 0 0
0 0 0 0 0 0 0 0 0 0 0 -0 -0 -0 -0 0 0 0 0 0 0 0 0 0 0 0 0 0 0 0 0 0 0 0 0 0 0 0 0 0 0 0 0 0
0 0 0 0 0 0 0 0 0 0 0 -0 -0 0 0 0 0 0 0 0 0 0 0 0 0 0 0 0 0 0 0 0 0 0 0 0 0 0 0 0 0 0 0 0
0 0 0 0 0 0 0 0 0 0 0 0 -0 0 0 0 0 0 0 0 0 0 0 0 0 0 0 0 0 0 0 0 0 0 0 0 0 0 0 0 0 0 0 0
0 0 0 0 0 0 0 0 0 0 -0 -0 -0 0 0 -0 0 0 0 0 0 0 0 0 0 0 0 0 0 0 0 0 0 0 0 0 0 0 0 0 0 0 0 0
0 0 0 0 0 0 0 0 0 0 -0 -0 -0 0 0 -0 0 0 0 0 0 0 0 0 0 0 0 0 0 0 0 0 0 0 0 0 0 0 0 0 0 0 0 0
0 0 0 0 0 0 0 0 0 0 -0 -0 0 0 -0 -0 0 0 0 0 0 0 0 0 0 0 0 0 0 0 0 0 0 0 0 0 0 0 0 0 0 0 0 0
0 0 0 0 0 0 0 0 0 0 -0 -0 -0 -0 -0 -0 -0 0 0 0 0 0 0 0 0 0 0 0 0 0 0 0 0 0 0 0 0 0 0 0 0 0 0 0
0 0 0 0 0 0 0 0 0 0 -0 -0 -0 -0 -0 -0 0 0 0 0 0 0 0 0 0 0 0 0 0 0 0 0 0 0 0 0 0 0 0 0 0 0 0 0
0 0 0 0 0 0 0 0 0 0 -0 -0 -0 -0 -0 -0 0 0 0 0 0 0 0 0 0 0 0 0 0 0 0 0 0 0 0 0 0 0 0 0 0 0 0 0
0 0 -0 0 0 0 0 0 0 -0 0 -0 -0 -0 -0 -0 0 0 0 0 0 0 0 0 0 0 0 0 0 0 0 0 0 0 0 0 0 0 0 0 0 0 0 0
0 0 0 0 0 0 0 0 0 0 -0 -0 -0 -0 -0 0 0 0 0 0 0 0 0 0 0 0 0 0 0 0 0 0 0 0 0 0 0 0 0 0 0 0 0 0
0 0 0 0 0 0 -0 -0 -0 -0 -0 -0 -0 0 0 0 0 0 0 0 0 0 0 0 0 0 0 0 0 0 0 0 0 0 0 0 0 0 0 0 0 0 0 0
0 0 0 0 0 0 -0 -0 -0 -0 -0 -0 0 0 0 0 0 0 0 0 0 0 0 0 0 0 0 0 0 0 0 0 0 0 0 0 0 0 0 0 0 0 0 0
0 0 0 -0 0 0 0 -0 -0 -0 -0 -0 0 0 0 0 0 0 0 0 0 0 0 0 0 0 0 0 0 0 0 0 0 0 0 0 0 0 0 0 0 0 0 0
0 0 0 0 0 0 0 0 -0 -0 -0 -0 -0 0 0 0 0 0 0 0 0 0 0 0 0 0 0 0 0 0 0 0 0 0 0 0 0 0 0 0 0 0 0 0
0 0 -0 -0 0 0 0 -0 -0 -0 0 -0 0 0 0 -0 0 0 0 0 0 0 0 0 0 0 0 0 0 0 0 0 0 0 0 0 0 0 0 0 0 0 0 0
0 0 0 -0 -0 -0 -0 -0 -0 -0 0 0 0 0 0 0 0 0 0 0 0 0 0 0 0 0 0 0 0 0 0 0 0 0 0 0 0 0 0 0 0 0 0 0
0 0 -0 -0 -0 -0 -0 0 -0 0 0 0 0 0 0 0 0 0 0 0 0 0 0 0 0 0 0 0 0 0 0 0 0 0 0 0 0 0 0 0 0 0 0 0
0 -0 -0 -0 -0 -0 -0 -0 -0 0 0 0 0 0 0 0 0 0 0 0 0 0 0 0 0 0 0 0 0 0 0 0 0 0 0 0 0 0 0 0 0 0 0 0
-0 -0 -0 -0 -0 -0 0 0 0 0 0 0 0 0 0 0 0 0 0 0 0 0 0 0 0 0 0 0 0 0 0 0 0 0 0 0 0 0 0 0 0 0 0 0
0 0 -0 -0 -0 0 0 0 0 0 0 0 0 0 0 0 0 0 0 0 0 0 0 0 0 0 0 0 0 0 0 0 0 0 0 0 0 0 0 0 0 0 0 0
0 0 0 0 0 -0 0 0 0 0 0 0 0 0 0 0 0 0 0 0 0 0 0 0 0 0 0 0 0 0 0 0 0 0 0 0 0 0 0 0 0 0 0 0
0 0 0 0 0 0 0 0 0 0 0 0 0 0 0 0 0 0 0 0 0 0 0 0 0 0 0 0 0 0 0 0 0 0 0 0 0 0 0 0 0 0 0 0
0 0 0 0 0 0 0 0 0 0 0 0 0 0 0 0 0 0 0 0 0 0 0 0 0 0 0 0 0 0 0 0 0 0 0 0 0 0 0 0 0 0 0 0
0 0 0 0 0 0 0 0 0 0 0 0 0 0 0 0 0 0 0 0 0 0 0 0 0 0 0 0 0 0 0 0 0 0 0 0 0 0 0 0 0 0 0 0
Wind_Speed_500mb
14 5 4 14 17 11 6 13 3 2 8 19 33 36 49 48 45 42 36 29 21 18 14 7 3 3 2 4 10 14 19 23 25 27 27 21 28 33 39 42 44 47 49 45
11 11 9 13 12 18 13 9 6 6 6 4 32 37 42 48 46 42 35 29 23 19 15 8 3 3 5 3 5 10 17 21 22 23 25 21 26 31 36 40 44 49 51 52
4 8 8 8 10 6 8 7 8 6 4 37 32 45 53 51 46 40 35 30 26 21 15 10 2 2 5 7 2 7 13 19 19 21 23 21 24 28 35 38 39 45 52 52
5 3 8 5 3 9 5 9 18 4 15 33 35 39 40 42 43 36 33 30 27 22 18 10 0 0 5 5 3 3 9 14 15 16 19 20 23 23 31 39 38 40 42 47
8 4 9 6 11 13 14 10 25 15 22 24 32 31 23 37 35 32 32 29 26 23 20 10 7 2 4 7 8 1 5 8 10 12 14 16 18 20 22 26 34 39 40 43
7 7 10 1 8 13 9 8 33 30 36 44 44 19 13 48 40 33 31 29 29 27 22 15 13 14 3 7 11 6 4 4 6 8 13 18 20 19 19 25 33 37 39 42
7 7 6 4 18 17 7 3 32 36 43 53 27 7 18 51 42 37 37 35 28 24 20 16 9 14 12 2 10 10 3 2 3 6 12 19 21 22 21 24 32 34 35 39
6 5 11 12 15 13 4 4 25 34 40 45 20 21 37 46 45 45 40 34 25 28 26 17 7 6 14 12 9 10 6 5 6 9 14 21 25 25 25 24 28 33 36 35
10 2 3 7 1 4 4 6 20 34 38 40 35 35 42 46 46 44 38 31 24 24 25 15 7 3 8 14 8 11 9 9 10 13 13 20 25 27 24 24 27 31 35 36
7 8 6 10 13 6 7 6 24 30 44 45 39 41 43 44 45 41 35 30 23 23 21 14 6 6 7 14 11 10 8 9 11 12 12 17 25 28 27 25 27 28 38 39
2 5 3 9 18 17 20 23 30 29 34 42 39 42 47 45 43 37 32 28 22 18 15 12 5 7 10 15 10 9 6 8 7 8 12 13 24 25 27 25 22 25 30 34
6 20 5 14 34 32 30 34 31 35 37 37 37 46 45 43 39 34 31 28 19 12 7 7 7 7 11 10 9 5 4 3 4 6 12 16 23 20 22 24 24 23 26 28
8 34 10 36 39 35 32 31 30 28 34 43 42 46 44 41 36 30 28 20 19 9 5 7 7 5 7 11 6 4 7 1 3 7 15 19 21 22 24 25 27 29 24 24
35 36 32 43 27 37 34 34 30 30 37 43 49 46 41 38 34 29 26 12 9 9 7 8 8 11 8 13 8 3 2 4 4 11 17 18 21 23 25 26 28 29 26 24
43 8 22 43 49 42 38 39 40 43 47 49 47 43 39 35 33 29 19 11 6 6 9 16 18 17 16 12 9 6 4 3 9 12 22 19 18 21 23 25 23 24 25 25
32 16 38 49 50 48 44 43 48 51 51 50 46 40 34 35 32 24 18 10 7 4 8 14 15 17 18 13 16 9 8 9 11 12 19 16 17 20 23 23 23 23 27 25
44 32 40 46 53 53 46 44 49 55 52 50 47 42 39 38 28 27 19 11 8 6 13 15 11 11 15 17 12 17 14 12 13 11 18 13 14 25 25 27 26 25 26 22
22 19 36 36 57 55 48 45 50 52 51 49 46 41 40 33 30 25 17 10 8 6 17 13 10 12 6 9 16 17 18 17 11 12 13 16 20 25 29 27 25 26 24 22
22 22 35 44 49 49 46 46 49 47 48 48 45 41 33 29 24 21 16 11 9 3 10 12 9 11 11 8 7 14 13 11 16 21 20 16 20 25 31 23 25 23 20 22
29 29 34 46 47 45 45 40 44 47 46 45 43 40 33 27 24 21 16 11 9 4 6 6 10 13 15 17 13 17 16 16 18 17 19 22 25 23 23 27 25 19 18 24
31 34 42 46 47 44 39 41 43 48 47 42 42 41 34 25 23 21 16 15 12 10 6 9 8 15 19 10 7 6 13 17 23 25 21 20 22 18 20 20 20 19 15 21
36 44 45 46 46 45 41 39 37 42 47 44 41 39 37 28 25 16 13 12 7 4 5 8 14 14 5 9 10 6 7 9 11 10 9 9 13 19 21 21 19 16 18 23
44 43 43 46 47 47 43 39 35 32 36 40 41 40 33 26 23 18 20 14 10 5 10 12 11 8 8 9 6 7 8 9 9 9 12 18 23 26 25 18 15 14 19 23
45 42 41 43 45 45 43 39 37 32 27 28 32 32 30 31 23 18 12 6 10 6 12 13 8 5 10 14 12 9 8 9 12 14 16 19 22 27 21 15 13 18 21 23
43 43 42 44 42 39 36 35 37 34 29 32 32 29 29 24 20 22 15 12 7 7 8 6 5 3 1 5 6 11 15 11 14 17 21 25 28 23 15 15 16 19 21 24
45 43 39 35 32 33 35 36 38 37 37 38 38 31 29 25 21 18 21 17 9 4 8 7 3 5 4 4 3 5 10 13 12 16 21 26 33 27 15 16 18 20 22 24
43 37 36 35 33 31 30 32 34 35 38 39 35 31 27 23 22 16 20 15 9 10 8 13 12 10 9 8 7 5 9 11 13 14 19 25 31 33 25 15 17 19 21 26
Wind_Direction_500mb
44 336 128 135 151 154 126 132 285 55 215 186 183 177 175 171 170 170 171 176 180 181 179 183 322 332 184 49 28 31 28 22 20 22 16 21 34 35 25 27 29 27 25 24
62 16 144 112 111 121 115 133 115 165 209 167 163 167 172 175 174 176 178 180 181 184 180 186 278 255 199 152 50 37 21 16 16 21 26 49 43 36 28 24 26 27 24 24
108 359 141 136 163 127 142 174 164 194 111 152 164 179 181 179 181 181 180 181 185 186 180 184 251 263 178 185 99 31 9 7 21 32 43 46 44 37 31 23 24 24 23 24
121 14 219 86 259 231 189 205 197 166 164 180 179 182 181 186 182 181 179 181 183 183 179 178 291 287 192 193 197 14 4 15 32 42 44 38 32 32 32 25 23 23 22 22
160 192 307 199 184 174 194 210 193 179 149 152 149 148 181 189 186 182 180 179 182 177 168 136 65 19 196 207 206 185 341 7 26 29 26 24 20 18 23 20 22 15 13 10
178 170 230 170 154 159 166 260 182 172 161 158 157 183 191 185 179 174 170 173 175 175 163 130 70 49 126 197 199 205 291 346 9 30 35 24 16 13 12 8 5 5 10 14
157 210 267 205 158 164 203 54 172 175 170 168 178 177 162 171 171 170 164 161 164 171 159 136 92 37 41 197 205 206 250 304 25 9 2 356 359 360 4 0 2 6 6 15
133 201 243 151 147 201 54 103 169 171 175 171 157 147 151 162 162 161 161 166 168 168 165 161 144 36 16 18 212 214 241 260 283 323 329 344 346 338 347 346 350 3 3 12
205 207 106 205 35 216 197 153 172 171 169 166 156 152 155 159 162 162 163 167 176 178 185 191 189 323 351 347 319 231 255 261 284 304 312 338 343 346 340 335 336 354 3 8
179 184 234 217 223 224 180 186 173 178 174 172 165 158 156 161 163 164 169 176 181 191 200 202 246 285 335 329 321 232 275 276 280 304 304 335 341 347 351 348 343 349 355 358
178 228 239 222 196 170 150 153 158 164 176 177 173 160 160 162 163 165 176 184 192 202 209 214 261 301 307 312 307 225 278 286 290 326 326 323 337 344 349 351 356 357 357 360
176 179 157 170 168 159 156 156 162 165 164 173 174 161 159 160 165 171 178 188 194 183 191 197 226 266 310 323 320 189 354 10 5 1 346 328 333 341 352 356 354 357 359 2
140 152 139 155 155 155 156 155 156 162 171 162 161 160 157 159 169 175 175 170 176 185 181 244 252 252 308 294 288 250 313 229 10 6 349 347 335 344 349 347 346 344 335 348
147 136 124 157 164 158 158 151 149 152 157 159 156 158 158 165 172 174 160 162 200 222 244 293 290 254 292 310 214 271 16 146 12 358 343 336 345 346 343 340 340 342 338 333
157 139 178 165 157 155 156 155 150 152 155 155 157 162 168 172 171 167 157 172 197 242 247 281 284 258 270 271 196 153 91 328 320 331 352 355 341 333 334 338 336 336 336 338
169 141 156 161 158 159 160 160 157 156 159 160 164 170 170 164 159 160 167 171 208 220 314 315 294 264 253 244 224 230 270 309 287 309 338 357 4 4 359 350 345 342 342 338
146 140 154 161 166 165 168 168 167 162 163 168 169 169 167 165 167 173 168 165 194 258 330 338 336 297 249 236 244 238 257 285 313 286 310 334 341 353 348 349 347 342 344 340
184 184 181 185 172 166 167 169 169 167 169 170 172 172 171 175 177 176 174 181 222 283 333 344 19 34 22 245 237 238 251 289 285 286 312 330 340 342 343 337 341 340 346 343
171 170 175 177 174 166 163 167 170 168 169 172 175 176 179 180 182 179 182 198 218 276 346 347 359 12 18 0 244 226 252 286 297 283 291 312 328 330 332 335 337 336 336 341
163 167 168 167 167 165 161 166 171 172 171 173 178 185 179 177 179 186 193 200 187 237 322 333 335 337 330 322 278 241 246 284 306 310 288 291 305 315 330 336 342 338 323 333
167 164 162 162 163 163 162 162 171 181 179 179 182 188 182 188 181 183 194 199 228 227 273 305 327 341 334 4 3 226 247 282 305 307 303 298 312 324 333 337 340 342 337 340
167 162 162 163 163 163 166 164 164 172 183 188 192 194 196 191 186 177 187 201 248 194 7 13 359 342 54 52 51 44 356 340 337 340 341 345 341 337 335 335 336 335 335 337
166 165 164 166 167 167 169 174 175 174 186 196 200 200 205 201 183 204 201 225 218 92 57 32 1 94 61 11 15 43 34 28 38 22 1 345 339 336 334 335 340 348 336 339
163 163 163 164 167 172 177 182 188 189 193 200 196 191 191 180 182 193 195 180 171 149 114 66 44 126 59 63 69 42 34 40 27 14 4 2 358 352 354 2 353 346 347 348
163 160 162 165 169 177 182 184 183 184 185 182 180 181 185 194 213 203 193 175 140 159 158 109 101 59 18 80 58 41 38 43 38 28 19 12 4 2 7 5 359 356 350 347
163 163 165 172 176 181 181 183 186 188 188 185 183 187 186 185 194 199 198 193 152 136 200 178 245 301 329 247 288 351 6 10 2 7 7 6 5 6 359 358 356 348 346 343
164 167 169 169 172 179 187 191 191 193 193 194 187 185 184 196 190 192 179 173 201 224 252 239 245 256 247 258 271 293 322 324 336 338 348 354 358 2 358 347 349 345 342 339
Wind_Speed_850mb
14 5 4 14 17 11 6 13 3 2 8 19 33 36 49 48 45 42 36 29 21 18 14 7 3 3 2 4 10 14 19 23 25 27 27 21 28 33 39 42 44 47 49 45
11 11 9 13 12 18 13 9 6 6 6 4 32 37 42 48 46 42 35 29 23 19 15 8 3 3 5 3 5 10 17 21 22 23 25 21 26 31 36 40 44 49 51 52
4 8 8 8 10 6 8 7 8 6 4 37 32 45 53 51 46 40 35 30 26 21 15 10 2 2 5 7 2 7 13 19 19 21 23 21 24 28 35 38 39 45 52 52
5 3 8 5 3 9 5 9 18 4 15 33 35 39 40 42 43 36 33 30 27 22 18 10 0 0 5 5 3 3 9 14 15 16 19 20 23 23 31 39 38 40 42 47
8 4 9 6 11 13 14 10 25 15 22 24 32 31 23 37 35 32 32 29 26 23 20 10 7 2 4 7 8 1 5 8 10 12 14 16 18 20 22 26 34 39 40 43
7 7 10 1 8 13 9 8 33 30 36 44 44 19 13 48 40 33 31 29 29 27 22 15 13 14 3 7 11 6 4 4 6 8 13 18 20 19 19 25 33 37 39 42
7 7 6 4 18 17 7 3 32 36 43 53 27 7 18 51 42 37 37 35 28 24 20 16 9 14 12 2 10 10 3 2 3 6 12 19 21 22 21 24 32 34 35 39
6 5 11 12 15 13 4 4 25 34 40 45 20 21 37 46 45 45 40 34 25 28 26 17 7 6 14 12 9 10 6 5 6 9 14 21 25 25 25 24 28 33 36 35
10 2 3 7 1 4 4 6 20 34 38 40 35 35 42 46 46 44 38 31 24 24 25 15 7 3 8 14 8 11 9 9 10 13 13 20 25 27 24 24 27 31 35 36
7 8 6 10 13 6 7 6 24 30 44 45 39 41 43 44 45 41 35 30 23 23 21 14 6 6 7 14 11 10 8 9 11 12 12 17 25 28 27 25 27 28 38 39
2 5 3 9 18 17 20 23 30 29 34 42 39 42 47 45 43 37 32 28 22 18 15 12 5 7 10 15 10 9 6 8 7 8 12 13 24 25 27 25 22 25 30 34
6 20 5 14 34 32 30 34 31 35 37 37 37 46 45 43 39 34 31 28 19 12 7 7 7 7 11 10 9 5 4 3 4 6 12 16 23 20 22 24 24 23 26 28
8 34 10 36 39 35 32 31 30 28 34 43 42 46 44 41 36 30 28 20 19 9 5 7 7 5 7 11 6 4 7 1 3 7 15 19 21 22 24 25 27 29 24 24
35 36 32 43 27 37 34 34 30 30 37 43 49 46 41 38 34 29 26 12 9 9 7 8 8 11 8 13 8 3 2 4 4 11 17 18 21 23 25 26 28 29 26 24
43 8 22 43 49 42 38 39 40 43 47 49 47 43 39 35 33 29 19 11 6 6 9 16 18 17 16 12 9 6 4 3 9 12 22 19 18 21 23 25 23 24 25 25
32 16 38 49 50 48 44 43 48 51 51 50 46 40 34 35 32 24 18 10 7 4 8 14 15 17 18 13 16 9 8 9 11 12 19 16 17 20 23 23 23 23 27 25
44 32 40 46 53 53 46 44 49 55 52 50 47 42 39 38 28 27 19 11 8 6 13 15 11 11 15 17 12 17 14 12 13 11 18 13 14 25 25 27 26 25 26 22
22 19 36 36 57 55 48 45 50 52 51 49 46 41 40 33 30 25 17 10 8 6 17 13 10 12 6 9 16 17 18 17 11 12 13 16 20 25 29 27 25 26 24 22
22 22 35 44 49 49 46 46 49 47 48 48 45 41 33 29 24 21 16 11 9 3 10 12 9 11 11 8 7 14 13 11 16 21 20 16 20 25 31 23 25 23 20 22
29 29 34 46 47 45 45 40 44 47 46 45 43 40 33 27 24 21 16 11 9 4 6 6 10 13 15 17 13 17 16 16 18 17 19 22 25 23 23 27 25 19 18 24
31 34 42 46 47 44 39 41 43 48 47 42 42 41 34 25 23 21 16 15 12 10 6 9 8 15 19 10 7 6 13 17 23 25 21 20 22 18 20 20 20 19 15 21
36 44 45 46 46 45 41 39 37 42 47 44 41 39 37 28 25 16 13 12 7 4 5 8 14 14 5 9 10 6 7 9 11 10 9 9 13 19 21 21 19 16 18 23
44 43 43 46 47 47 43 39 35 32 36 40 41 40 33 26 23 18 20 14 10 5 10 12 11 8 8 9 6 7 8 9 9 9 12 18 23 26 25 18 15 14 19 23
45 42 41 43 45 45 43 39 37 32 27 28 32 32 30 31 23 18 12 6 10 6 12 13 8 5 10 14 12 9 8 9 12 14 16 19 22 27 21 15 13 18 21 23
43 43 42 44 42 39 36 35 37 34 29 32 32 29 29 24 20 22 15 12 7 7 8 6 5 3 1 5 6 11 15 11 14 17 21 25 28 23 15 15 16 19 21 24
45 43 39 35 32 33 35 36 38 37 37 38 38 31 29 25 21 18 21 17 9 4 8 7 3 5 4 4 3 5 10 13 12 16 21 26 33 27 15 16 18 20 22 24
43 37 36 35 33 31 30 32 34 35 38 39 35 31 27 23 22 16 20 15 9 10 8 13 12 10 9 8 7 5 9 11 13 14 19 25 31 33 25 15 17 19 21 26
Wind_Direction_850mb
44 336 128 135 151 154 126 132 285 55 215 186 183 177 175 171 170 170 171 176 180 181 179 183 322 332 184 49 28 31 28 22 20 22 16 21 34 35 25 27 29 27 25 24
62 16 144 112 111 121 115 133 115 165 209 167 163 167 172 175 174 176 178 180 181 184 180 186 278 255 199 152 50 37 21 16 16 21 26 49 43 36 28 24 26 27 24 24
108 359 141 136 163 127 142 174 164 194 111 152 164 179 181 179 181 181 180 181 185 186 180 184 251 263 178 185 99 31 9 7 21 32 43 46 44 37 31 23 24 24 23 24
121 14 219 86 259 231 189 205 197 166 164 180 179 182 181 186 182 181 179 181 183 183 179 178 291 287 192 193 197 14 4 15 32 42 44 38 32 32 32 25 23 23 22 22
160 192 307 199 184 174 194 210 193 179 149 152 149 148 181 189 186 182 180 179 182 177 168 136 65 19 196 207 206 185 341 7 26 29 26 24 20 18 23 20 22 15 13 10
178 170 230 170 154 159 166 260 182 172 161 158 157 183 191 185 179 174 170 173 175 175 163 130 70 49 126 197 199 205 291 346 9 30 35 24 16 13 12 8 5 5 10 14
157 210 267 205 158 164 203 54 172 175 170 168 178 177 162 171 171 170 164 161 164 171 159 136 92 37 41 197 205 206 250 304 25 9 2 356 359 360 4 0 2 6 6 15
133 201 243 151 147 201 54 103 169 171 175 171 157 147 151 162 162 161 161 166 168 168 165 161 144 36 16 18 212 214 241 260 283 323 329 344 346 338 347 346 350 3 3 12
205 207 106 205 35 216 197 153 172 171 169 166 156 152 155 159 162 162 163 167 176 178 185 191 189 323 351 347 319 231 255 261 284 304 312 338 343 346 340 335 336 354 3 8
179 184 234 217 223 224 180 186 173 178 174 172 165 158 156 161 163 164 169 176 181 191 200 202 246 285 335 329 321 232 275 276 280 304 304 335 341 347 351 348 343 349 355 358
178 228 239 222 196 170 150 153 158 164 176 177 173 160 160 162 163 165 176 184 192 202 209 214 261 301 307 312 307 225 278 286 290 326 326 323 337 344 349 351 356 357 357 360
176 179 157 170 168 159 156 156 162 165 164 173 174 161 159 160 165 171 178 188 194 183 191 197 226 266 310 323 320 189 354 10 5 1 346 328 333 341 352 356 354 357 359 2
140 152 139 155 155 155 156 155 156 162 171 162 161 160 157 159 169 175 175 170 176 185 181 244 252 252 308 294 288 250 313 229 10 6 349 347 335 344 349 347 346 344 335 348
147 136 124 157 164 158 158 151 149 152 157 159 156 158 158 165 172 174 160 162 200 222 244 293 290 254 292 310 214 271 16 146 12 358 343 336 345 346 343 340 340 342 338 333
157 139 178 165 157 155 156 155 150 152 155 155 157 162 168 172 171 167 157 172 197 242 247 281 284 258 270 271 196 153 91 328 320 331 352 355 341 333 334 338 336 336 336 338
169 141 156 161 158 159 160 160 157 156 159 160 164 170 170 164 159 160 167 171 208 220 314 315 294 264 253 244 224 230 270 309 287 309 338 357 4 4 359 350 345 342 342 338
146 140 154 161 166 165 168 168 167 162 163 168 169 169 167 165 167 173 168 165 194 258 330 338 336 297 249 236 244 238 257 285 313 286 310 334 341 353 348 349 347 342 344 340
184 184 181 185 172 166 167 169 169 167 169 170 172 172 171 175 177 176 174 181 222 283 333 344 19 34 22 245 237 238 251 289 285 286 312 330 340 342 343 337 341 340 346 343
171 170 175 177 174 166 163 167 170 168 169 172 175 176 179 180 182 179 182 198 218 276 346 347 359 12 18 0 244 226 252 286 297 283 291 312 328 330 332 335 337 336 336 341
163 167 168 167 167 165 161 166 171 172 171 173 178 185 179 177 179 186 193 200 187 237 322 333 335 337 330 322 278 241 246 284 306 310 288 291 305 315 330 336 342 338 323 333
167 164 162 162 163 163 162 162 171 181 179 179 182 188 182 188 181 183 194 199 228 227 273 305 327 341 334 4 3 226 247 282 305 307 303 298 312 324 333 337 340 342 337 340
167 162 162 163 163 163 166 164 164 172 183 188 192 194 196 191 186 177 187 201 248 194 7 13 359 342 54 52 51 44 356 340 337 340 341 345 341 337 335 335 336 335 335 337
166 165 164 166 167 167 169 174 175 174 186 196 200 200 205 201 183 204 201 225 218 92 57 32 1 94 61 11 15 43 34 28 38 22 1 345 339 336 334 335 340 348 336 339
163 163 163 164 167 172 177 182 188 189 193 200 196 191 191 180 182 193 195 180 171 149 114 66 44 126 59 63 69 42 34 40 27 14 4 2 358 352 354 2 353 346 347 348
163 160 162 165 169 177 182 184 183 184 185 182 180 181 185 194 213 203 193 175 140 159 158 109 101 59 18 80 58 41 38 43 38 28 19 12 4 2 7 5 359 356 350 347
163 163 165 172 176 181 181 183 186 188 188 185 183 187 186 185 194 199 198 193 152 136 200 178 245 301 329 247 288 351 6 10 2 7 7 6 5 6 359 358 356 348 346 343
164 167 169 169 172 179 187 191 191 193 193 194 187 185 184 196 190 192 179 173 201 224 252 239 245 256 247 258 271 293 322 324 336 338 348 354 358 2 358 347 349 345 342 339